[[{"header":{"parameterUnit":"m.s-1","parameterCategory":1,"la1":30.2991,"la2":30.254,"lo1":-89.0895,"lo2":-89.0444,"dy":0.0017,"dx":0.0017,"nx":28,"ny":28,"refTime":"2023-07-28T21:00:00:Z","depth":0,"parameterNumber":2,"parameterNumberName":"U-component_of_WINDS"},"data":[0,0,0,0,0,0,0,0,0,0,0,0,0,0,0,0,0,0,0,0,0,0,0,0,0,0,0,0,0,0,0,0,0,0,0,0,0,0,0,0,0,0,0,0,0,0,0,0,0,0,0,0,0,0,0,0,0,0,3.1255,3.1255,0,3.1243,3.1243,3.1243,3.1042,3.1037,3.1032,3.1027,3.1021,3.1026,3.103,0,0,0,0,0,0,0,0,0,0,0,0,0,3.1108,3.1112,3.1255,3.1255,3.1254,3.1243,3.1243,3.1243,3.1043,3.1037,3.1031,3.1025,3.102,3.1025,3.1031,0,0,0,0,0,0,0,0,0,0,0,0,0,3.1142,3.1113,3.1255,3.1153,3.1144,3.1243,3.1243,3.1243,3.1044,3.1037,3.1029,3.1022,3.1018,3.1025,3.1031,3.1229,0,0,3.1053,3.1056,0,0,0,0,0,0,0,0,3.1141,3.1148,3.1168,3.116,3.115,3.1136,3.1189,3.1238,3.1046,3.1083,3.1027,3.1018,3.1066,3.1069,3.1083,3.1228,3.1228,3.1053,3.1057,3.106,3.1062,0,0,0,0,0,0,0,3.1138,3.1147,3.125,3.1169,3.1158,3.111,3.1106,3.1197,3.1118,3.1079,3.1064,3.1065,3.106,3.1077,3.1082,3.1228,3.1053,3.1059,3.1063,3.1066,3.1534,3.1542,0,0,0,0,0,0,3.1149,3.1147,3.1251,3.125,3.1126,3.1119,3.1114,3.1149,3.1116,3.1104,3.1072,3.1056,3.1069,3.1074,3.1081,3.1309,3.106,3.1067,3.1071,3.1526,3.1536,3.1545,0,0,0,0,0,0,3.1147,3.1161,3.1251,3.1194,3.1202,3.1129,3.1169,3.1152,3.117,3.1111,3.1096,3.1104,3.1063,3.1071,3.1193,3.1307,3.107,3.1076,3.1516,3.1529,3.154,3.1769,0,0,0,0,0,0,3.1144,3.1161,3.1234,3.1197,3.1206,3.1363,3.1176,3.1158,3.1182,3.1161,3.1137,3.1126,3.1058,3.1184,3.12,3.1312,3.1082,3.1506,3.1522,3.1536,3.1751,3.1788,3.1819,0,0,0,0,0,3.1139,3.13,3.1239,3.1253,3.1296,3.137,3.1375,3.1291,3.1192,3.1265,3.1227,3.1127,3.1291,3.1198,3.1214,3.133,3.1498,3.1517,3.1535,3.1736,3.1781,3.1818,0,0,0,0,0,0,3.1355,3.1294,3.1225,3.1379,3.1381,3.1336,3.1426,3.1341,3.1373,3.1352,3.1249,3.1245,3.1384,3.1369,3.1266,3.1519,3.1377,3.14,3.1524,3.1566,3.16,3.1601,3.1088,0,0,0,0,0,3.142,3.1483,3.1427,3.1568,3.1572,3.15,3.1529,3.1464,3.1463,3.1463,3.1434,3.1438,3.149,3.1527,3.1572,3.1748,3.174,3.1836,3.187,3.1898,3.1919,3.2011,3.2053,3.1606,3.1606,3.1605,0,0,3.1555,3.153,3.1577,3.1611,3.1605,3.1674,3.1502,3.1583,3.1634,3.1476,3.1588,3.1568,3.1565,3.1715,3.178,3.1707,3.2041,3.1922,3.1945,3.195,3.2035,3.2077,3.2115,3.1618,3.1616,3.1614,0,0,3.1838,3.1825,3.1941,3.1938,3.193,3.188,3.1909,3.1876,3.1856,3.1967,3.185,3.191,3.2002,3.2005,3.2019,3.2303,3.2212,3.232,3.2499,3.259,3.2625,3.2656,3.2758,3.2795,3.2342,3.2342,3.2343,0,3.2008,3.2107,3.2012,3.21,3.2119,3.1977,3.2095,3.2097,3.2106,3.2123,3.2041,3.2153,3.2141,3.229,3.2359,3.2375,3.2405,3.2323,3.2627,3.2657,3.2684,3.278,3.2819,3.2355,3.2354,3.2353,3.2351,0,3.2317,3.2387,3.2482,3.2491,3.2521,3.2624,3.2546,3.2587,3.252,3.248,3.2595,3.2576,3.2615,3.2645,3.2581,3.2785,3.274,3.2645,3.25,3.2742,3.283,3.2866,3.2374,3.237,3.2366,3.2362,0,0,3.2736,3.269,3.2727,3.2729,3.271,3.2764,3.2861,3.2896,3.2934,3.2945,3.3024,3.3105,3.3016,3.3032,3.2967,3.3047,3.3274,3.2941,3.2939,3.3004,3.3498,3.3571,3.3615,3.3213,3.3219,3.3225,3.3498,0,3.3009,3.317,3.3087,3.3259,3.3323,3.3189,3.3274,3.3272,3.3237,3.3288,3.3249,3.3308,3.3186,3.3195,3.3268,3.3231,3.3372,3.321,3.3287,3.3291,3.3293,3.3661,3.3738,3.3997,3.3532,3.3538,3.3542,0,3.3349,3.3372,3.3551,3.3519,3.3543,3.362,3.3646,3.3696,3.3691,3.366,3.3678,3.3594,3.3688,3.3544,3.3673,3.3565,3.3592,3.3579,3.3587,3.3591,3.3432,3.3676,3.4078,3.4117,3.3596,3.3592,3.3588,0,3.3638,3.3713,3.3829,3.3836,3.3802,3.3859,3.3848,3.3836,3.3863,3.3886,3.3903,3.3938,3.3958,3.3988,3.3916,3.3817,3.4055,3.3905,3.4033,3.4036,3.409,3.4088,3.4502,3.4107,3.4107,3.4106,3.4105,0,3.3952,3.4066,3.3958,3.4031,3.4155,3.4059,3.4186,3.4161,3.4151,3.4216,3.4103,3.4168,3.4068,3.4124,3.4068,3.4184,3.4194,3.4172,3.4157,3.4183,3.4186,3.42,3.418,3.4116,3.4114,3.4112,3.411,0,3.4295,3.4227,3.4345,3.4303,3.4295,3.4389,3.4353,3.4419,3.4375,3.446,3.4474,3.4407,3.4466,3.4397,3.4451,3.4413,3.457,3.4528,3.4572,3.456,3.4692,3.4681,3.513,3.5185,3.4755,3.4759,3.4762,0,3.45,3.4585,3.4551,3.4586,3.4581,3.4639,3.4665,3.4574,3.4607,3.4608,3.4674,3.4723,3.4757,3.4858,3.4815,3.4855,3.4813,3.4968,3.4818,3.4842,3.4816,3.4812,3.482,3.4999,3.5004,3.5008,3.5011,0,3.4872,3.4834,3.4875,3.4905,3.4939,3.4959,3.497,3.5006,3.4911,3.4953,3.5011,3.5038,3.5091,3.5142,3.517,3.516,3.5072,3.5059,3.509,3.5119,3.5141,3.5131,3.4655,3.5049,3.5045,3.5042,3.504,3.5039,3.5152,3.5221,3.5208,3.5258,3.5256,3.5269,3.5329,3.5292,3.5338,3.5373,3.5317,3.539,3.5384,3.5412,3.5413,3.5469,3.5403,3.5449,3.5461,3.5474,3.5494,3.5131,3.5474,3.5473,3.5472,3.5471,3.547,0,3.5518,3.5502,3.5549,3.5567,3.5607,3.5518,3.5525,3.5565,3.563,3.5631,3.5666,3.5733,3.5781,3.5742,3.5782,3.5835,3.5796,3.5849,3.5845,3.5844,3.5551,3.5519,3.588,3.588,3.588,3.588,3.588,3.588,3.5713,3.5825,3.5786,3.5896,3.588,3.5949,3.5961,3.5973,3.5973,3.6052,3.6091,3.6064,3.6049,3.6087,3.6128,3.6115,3.6136,3.6204,3.6178,3.5905,3.5864,3.5826,3.5796,3.6209,3.621,3.6465,3.6468,3.647]},{"header":{"parameterUnit":"m.s-1","parameterCategory":1,"la1":30.2991,"la2":30.254,"lo1":-89.0895,"lo2":-89.0444,"dy":0.0017,"dx":0.0017,"nx":28,"ny":28,"refTime":"2023-07-28T21:00:00:Z","depth":0,"parameterNumber":3,"parameterNumberName":"V-component_of_WINDS"},"data":[0,0,0,0,0,0,0,0,0,0,0,0,0,0,0,0,0,0,0,0,0,0,0,0,0,0,0,0,0,0,0,0,0,0,0,0,0,0,0,0,0,0,0,0,0,0,0,0,0,0,0,0,0,0,0,0,0,0,0.5844,0.5845,0,0.5866,0.5866,0.5867,0.5819,0.5818,0.5816,0.5815,0.584,0.5842,0.5844,0,0,0,0,0,0,0,0,0,0,0,0,0,0.5764,0.5766,0.5844,0.5845,0.5845,0.5866,0.5866,0.5867,0.5819,0.5817,0.5816,0.5814,0.5839,0.5841,0.5844,0,0,0,0,0,0,0,0,0,0,0,0,0,0.5794,0.5766,0.5844,0.5824,0.5822,0.5866,0.5866,0.5867,0.582,0.5817,0.5815,0.5813,0.5838,0.5841,0.5844,0.591,0,0,0.5854,0.5855,0,0,0,0,0,0,0,0,0.5792,0.5797,0.5827,0.5825,0.5824,0.5837,0.5847,0.5881,0.582,0.5821,0.5815,0.5812,0.5841,0.5844,0.5853,0.5911,0.5912,0.5854,0.5856,0.5857,0.5858,0,0,0,0,0,0,0,0.579,0.5795,0.5853,0.5827,0.5825,0.5814,0.5816,0.5853,0.5844,0.5821,0.5817,0.582,0.584,0.585,0.5853,0.5913,0.5854,0.5857,0.5859,0.586,0.6024,0.6027,0,0,0,0,0,0,0.579,0.5794,0.5852,0.5854,0.5802,0.5817,0.5819,0.5835,0.5843,0.5842,0.5822,0.5818,0.5846,0.585,0.5854,0.593,0.5857,0.586,0.5862,0.6022,0.6025,0.6027,0,0,0,0,0,0,0.5789,0.5796,0.5852,0.5823,0.5829,0.5821,0.584,0.5837,0.5847,0.5844,0.5843,0.5834,0.5844,0.5849,0.5896,0.5931,0.5862,0.5865,0.6019,0.6023,0.6026,0.6084,0,0,0,0,0,0,0.5787,0.5796,0.582,0.5824,0.5831,0.5893,0.5842,0.5839,0.5852,0.5847,0.5855,0.5854,0.5843,0.5891,0.5899,0.5934,0.5867,0.6016,0.6021,0.6025,0.6079,0.609,0.6098,0,0,0,0,0,0.5784,0.5837,0.5822,0.5829,0.5861,0.5895,0.5899,0.5884,0.5855,0.588,0.5878,0.5854,0.5925,0.5897,0.5905,0.5941,0.6013,0.6019,0.6025,0.6075,0.6088,0.6098,0,0,0,0,0,0,0.5839,0.5837,0.582,0.5876,0.5886,0.5887,0.5918,0.5898,0.5917,0.5911,0.5892,0.5894,0.5944,0.5947,0.5915,0.6004,0.5965,0.5972,0.6,0.6012,0.6022,0.602,0.587,0,0,0,0,0,0.5857,0.5884,0.5881,0.593,0.5936,0.5926,0.594,0.5927,0.5937,0.5941,0.5943,0.5954,0.5979,0.5996,0.6018,0.6079,0.608,0.6108,0.6118,0.6126,0.6132,0.6164,0.6176,0.6046,0.6046,0.6046,0,0,0.5896,0.5898,0.5916,0.5941,0.5947,0.5976,0.593,0.5962,0.5983,0.5947,0.599,0.5991,0.6003,0.6056,0.608,0.606,0.6168,0.6133,0.6139,0.6141,0.6171,0.6183,0.6194,0.6049,0.6049,0.6048,0,0,0.598,0.5985,0.6025,0.6032,0.6042,0.6034,0.6044,0.6048,0.6047,0.609,0.6063,0.6088,0.6131,0.614,0.615,0.6237,0.6215,0.6245,0.6295,0.6326,0.6336,0.6345,0.6375,0.6386,0.6251,0.6252,0.6252,0,0.6027,0.6068,0.6049,0.6083,0.6095,0.6061,0.6102,0.611,0.6127,0.6136,0.6114,0.6166,0.6172,0.6226,0.6247,0.6257,0.6267,0.6244,0.6336,0.6345,0.6353,0.6381,0.6393,0.6255,0.6255,0.6254,0.6254,0,0.6125,0.6154,0.6186,0.6201,0.6216,0.6254,0.6241,0.6259,0.6245,0.624,0.6284,0.6289,0.6311,0.6323,0.631,0.6376,0.6363,0.6339,0.6299,0.6369,0.6395,0.6406,0.626,0.6259,0.6258,0.6257,0,0,0.6245,0.6249,0.6261,0.6267,0.6274,0.6297,0.6332,0.6353,0.6369,0.6381,0.6411,0.6447,0.6424,0.6436,0.6423,0.645,0.6517,0.6422,0.6422,0.6439,0.6589,0.6608,0.6621,0.6503,0.6505,0.6507,0.6588,0,0.6328,0.6388,0.6372,0.6433,0.6459,0.6427,0.6458,0.6466,0.6463,0.6485,0.6481,0.6507,0.6474,0.6481,0.6506,0.6504,0.6547,0.6498,0.653,0.6532,0.6528,0.6635,0.6654,0.6731,0.6599,0.66,0.6602,0,0.6433,0.6448,0.6511,0.6513,0.6523,0.6551,0.6568,0.659,0.6598,0.6594,0.6606,0.6588,0.6623,0.6583,0.6631,0.6598,0.661,0.6611,0.6613,0.6616,0.6571,0.664,0.6755,0.6767,0.6618,0.6617,0.6615,0,0.6514,0.655,0.6592,0.6598,0.6602,0.6622,0.6625,0.6631,0.6644,0.6659,0.6667,0.6687,0.6698,0.6714,0.6701,0.6673,0.6752,0.6711,0.6749,0.6749,0.6767,0.6766,0.6886,0.6776,0.6775,0.6775,0.6775,0,0.6608,0.6648,0.6628,0.6654,0.6697,0.6678,0.6721,0.672,0.6725,0.6751,0.6725,0.6749,0.6731,0.6754,0.6745,0.6786,0.6791,0.6789,0.6785,0.6791,0.6791,0.6798,0.6793,0.6778,0.6778,0.6777,0.6776,0,0.6705,0.6694,0.6737,0.6736,0.6737,0.6769,0.6768,0.6792,0.6786,0.6818,0.6825,0.6816,0.6841,0.683,0.6858,0.6851,0.6904,0.6894,0.69,0.6898,0.6936,0.6933,0.7065,0.7081,0.6961,0.6962,0.6963,0,0.6766,0.6795,0.6797,0.6812,0.6816,0.6839,0.6852,0.6835,0.6849,0.686,0.6883,0.6906,0.6923,0.6965,0.6962,0.6982,0.6972,0.7017,0.6975,0.6979,0.6972,0.697,0.6973,0.7026,0.7027,0.7028,0.7029,0,0.6875,0.6867,0.6886,0.6903,0.6919,0.6932,0.6942,0.6956,0.6938,0.6956,0.6981,0.6994,0.7021,0.7044,0.7062,0.7065,0.7045,0.7042,0.7052,0.7058,0.706,0.7058,0.6923,0.7039,0.7038,0.7038,0.7037,0.7037,0.6955,0.6979,0.6984,0.7006,0.7012,0.7022,0.7044,0.704,0.706,0.708,0.7068,0.7097,0.7104,0.7126,0.7132,0.7154,0.7137,0.7151,0.7155,0.7159,0.7163,0.7056,0.7158,0.7157,0.7157,0.7157,0.7157,0,0.7062,0.7063,0.7083,0.7098,0.7115,0.7093,0.7103,0.7119,0.7145,0.7153,0.717,0.7198,0.722,0.7218,0.7238,0.7256,0.7247,0.7262,0.7261,0.7261,0.7178,0.7168,0.7269,0.7269,0.7269,0.7269,0.7269,0.7269,0.7119,0.7158,0.7151,0.7193,0.7194,0.7222,0.7229,0.7239,0.7245,0.7277,0.7295,0.7292,0.7296,0.7316,0.7335,0.7334,0.7342,0.7361,0.7356,0.7279,0.7267,0.7257,0.7246,0.7363,0.7363,0.7437,0.7438,0.7438]}]]